This is the latest recevied weather packets stored in our database for station/object NK7E. If no packets are shown the sender has not sent any weather packets the latest 1 day(s).
| Time | Temp. | Humidity | Pressure | Rain* | Wind** | Luminosity | Snow |
|---|---|---|---|---|---|---|---|
| 1778004021 | 20° C | 58% | 1012.8 hPa | 0 mm | 0.89 m/s, 113° | 368 W/m² | - |
| 1778003415 | 19.44° C | 59% | 1012.8 hPa | 0 mm | 0.45 m/s, 68° | 817 W/m² | - |
| 1778002815 | 19.44° C | 59% | 1012.8 hPa | 0 mm | 0.45 m/s, 113° | 307 W/m² | - |
| 1778002215 | 18.89° C | 62% | 1012.8 hPa | 0 mm | 0.45 m/s, 248° | 759 W/m² | - |
| 1778001615 | 18.33° C | 64% | 1012.8 hPa | 0 mm | 0.45 m/s, 225° | 382 W/m² | - |
| 1778001015 | 18.33° C | 64% | 1012.8 hPa | 0 mm | 1.34 m/s, 203° | 360 W/m² | - |
| 1778000415 | 18.33° C | 65% | 1012.7 hPa | 0 mm | 0.89 m/s, 203° | 484 W/m² | - |
| 1777999815 | 17.78° C | 65% | 1012.8 hPa | 0 mm | 0.89 m/s, 0° | 429 W/m² | - |
| 1777999215 | 17.78° C | 70% | 1012.7 hPa | 0 mm | 1.34 m/s, 68° | 454 W/m² | - |
| 1777998615 | 16.67° C | 75% | 1012.9 hPa | 0 mm | 0.45 m/s, 135° | 774 W/m² | - |
| 1777996215 | 16.67° C | 77% | 1012.6 hPa | 0 mm | 0.45 m/s, 248° | 192 W/m² | - |
| 1777993215 | 15.56° C | 79% | 1012.6 hPa | 0 mm | 0.45 m/s, 180° | 74 W/m² | - |
| 1777992617 | 16.11° C | 80% | 1012.5 hPa | 0 mm | 0.45 m/s, 270° | 68 W/m² | - |
| 1777990517 | 15.56° C | 78% | 1012.3 hPa | 0 mm | 0.45 m/s, 113° | 37 W/m² | - |
| 1777989917 | 15.56° C | 79% | 1012.2 hPa | 0 mm | 0.45 m/s, 68° | 57 W/m² | - |
| 1777989317 | 15.56° C | 78% | 1012 hPa | 0 mm | 0.45 m/s, 23° | 71 W/m² | - |
| 1777988717 | 15° C | 79% | 1012 hPa | 0 mm | 0.89 m/s, 45° | 61 W/m² | - |
| 1777988117 | 15° C | 80% | 1012.1 hPa | 0 mm | 0.89 m/s, 45° | 40 W/m² | - |
| 1777987517 | 14.44° C | 83% | 1012 hPa | 0 mm | 1.79 m/s, 45° | 31 W/m² | - |
| 1777986317 | 14.44° C | 86% | 1011.8 hPa | 0 mm | 0.45 m/s, 0° | 16 W/m² | - |
| 1777985117 | 14.44° C | 86% | 1011.5 hPa | 0.25 mm | 0.89 m/s, 45° | 2 W/m² | - |
| 1777983917 | 14.44° C | 83% | 1011.4 hPa | 0.51 mm | 0.45 m/s, 0° | 0 W/m² | - |
| 1777982717 | 13.89° C | 85% | 1011.1 hPa | 0.51 mm | 1.34 m/s, 45° | 0 W/m² | - |
| 1777982117 | 13.89° C | 85% | 1011.1 hPa | 0.25 mm | 1.34 m/s, 45° | 0 W/m² | - |
| 1777981517 | 13.89° C | 84% | 1011.1 hPa | 0.25 mm | 1.34 m/s, 90° | 0 W/m² | - |
* Rain latest hour (hover to see other rain measurements)
** Current wind speed in m/s (hover to see current wind gust speed)